PLEIADES 1A

Last updated on Tue Jul 01 2025 00:02:29 GMT+0000 (Coordinated Universal Time)

1 38012U 11076F 25181.55223681 .00000196 00000+0 52042-4 0 9990 2 38012 98.1980 256.7033 0001567 104.6639 7.1294 14.58565806720735
UTC large
Height (km)
Speed (km/s)
/
Latitude / Longitude
Inclination (degrees)
Orbital Period (minutes)
Azimuth
Elevation
Range (km)
Doppler Factor

Next 0 passes for location: London (51.5072 / 0.1276)

Sorry there are no passes over London.